STARLINK-35929

Last updated on Wed Dec 31 2025 00:02:06 GMT+0000 (Coordinated Universal Time)

1 66625U 25271J 25364.53376117 .00057706 00000+0 14398-2 0 9996 2 66625 53.1607 102.9319 0000259 80.4027 279.7007 15.39660144 6952
UTC large
Height (km)
Speed (km/s)
/
Latitude / Longitude
Inclination (degrees)
Orbital Period (minutes)
Azimuth
Elevation
Range (km)
Doppler Factor

Next 0 passes for location: London (51.5072 / 0.1276)

Sorry there are no passes over London.